Weather in Vavozh

Russia / Udmurt Republic     56°46′27″N   51°55′35″E
temp.,
°C
wind,
m/s
gust,
m/s
humid.,
%
clouds,
%
prec.,
mm/h
press.,
hPa
HPBL,
m
2 december, thu
thu201:00−2w499256 0.3 991408
04:00−3wsw499099 0.3 993292
07:00−4wsw5109276 0.0 995466
10:00−4sw5108991 0.0 997631
13:00−3sw6108881 0.1 999853
16:00−3sw51093100 0.3 1000870
19:00−4wsw5108786 0.2 1001678
22:00−5wsw5988100 0.3 1003713
3 december, fri
fri301:00−5wsw61188100 0.1 1004846
04:00−5wsw61184100 0.1 1005817
07:00−5sw5118499 0.0 1005637
10:00−4sw5119192 0.1 1006622
13:00−2sw5119291 0.2 1006676
16:00−2sw5119497 0.4 1007484
19:00−1sw4119690 0.4 1009445
22:000wsw41092100 0.6 1011502
4 december, sat
sat401:00+1ssw41092100 0.1 1012404
04:00+1s51297100 0.1 1011424
07:00+1s71697100 0.2 1009577
10:00+2ssw81997100 0.3 1008699
13:00+2ssw91980100 0.0 1006795
16:00+1ssw81797100 0.8 1006882
19:00+1sw61398100 1.9 1006778
22:000wsw51091100 2.5 1008570
5 december, sun
sun501:00−1wsw4989100 0.0 1009541
04:00−3wsw4891100 0.0 1010438
07:00−3wsw489392 0.0 1010480
10:00−3w588993 0.1 1012765
13:00−3w6983100 0.1 10131001
16:00−4wnw61085100 0.2 10151180
19:00−8nw588097 0.1 1018768
22:00−10nw587557 0.1 1021647
6 december, mon
mon601:00−12nw587759 0.0 1023602
04:00−13nw467892 0.0 1025595
07:00−14nnw468171 0.0 1027540
10:00−15nnw468072 0.0 1030445
13:00−14n347790 0.0 1032473
16:00−14n34815 0.0 1033355
19:00−14nne24845 0.0 1035240
22:00−14ne238521 0.0 1037170